sat.trackr.live / text

‹ back to catalog

ONEWEB-0652

NORAD 55814 · 2023-029U

PAYLOAD ACTIVE UNKNOWN

§ Identity

Operator
Country
UK
Launch date
2023-03-09
Launch site
AFETR
Launch vehicle
Mass (kg)
RCS (m²)

Purposes: comms

External: N2YO · Heavens-Above · Gunter

§ Orbital elements

Epoch: 2026-09-19T18:48:42.734880Z

Period
109.55 min
Inclination
87.8897°
Eccentricity
0.0001938
Mean motion
13.14502347 rev/d
Perigee alt
1,204.3 km
Apogee alt
1,207.3 km
Semi-major
7,583.9 km
B*
7.7060e-4
RAAN
270.8425°
Arg perigee
94.5711°
Mean anomaly
265.5640°
Rev number
17,179

§ Raw data

ONEWEB-06521 55814U 23029U   26262.78382795  .00000298  00000+0  77060-3 0  99972 55814  87.8897 270.8425 0001938  94.5711 265.5640 13.14502347171791

JSON: /api/v1/satellites/55814 · /tle

For live sub-satellite position, see the globe view (requires WebGL).

§ Visibility from observer

Set your observer location to see the next 7 days of passes ≥ 10°. The values pass through the URL so the page stays shareable.

No JS? Fill the form by hand. The geolocation button needs JavaScript.